Lefor, ND

9:06 PM MDT on September 25, 2016 (GMT -0600)
Dickinson Municipal

Weather History for KDIK - August, 2013

Change the Weather History Date:

Sunday, August 25, 2013

  Actual Average Record
Temperature  
Mean Temperature 76 °F 66 °F  
Max Temperature 94 °F 81 °F 103 °F (1991)
Min Temperature 57 °F 52 °F 33 °F (1910)
Degree Days  
Heating Degree Days 0 2  
Month to date heating degree days 8 33  
Since 1 June heating degree days 164 204  
Since 1 July heating degree days 40 67  
Cooling Degree Days 11 4  
Month to date cooling degree days 105 134  
Year to date cooling degree days 248 363  
Since 1 June cooling degree days 239 353  
Growing Degree Days 25 (Base 50)    
Moisture  
Dew Point 56 °F    
Average Humidity 53    
Maximum Humidity 80    
Minimum Humidity 26    
Precipitation  
Precipitation 0.00 in 0.05 in 1.21 in (1943)
Month to date precipitation 1.67 1.24  
Year to date precipitation 13.17 11.99  
Sea Level Pressure  
Sea Level Pressure 29.91 in    
Wind  
Wind Speed 5 mph (ESE)    
Max Wind Speed 16 mph    
Max Gust Speed 18 mph    
Visibility 10 miles    
Events      
T = Trace of Precipitation, MM = Missing Value Source: NWS Daily Summary

Daily Weather History Graph

Daily Weather History Graph

Search for Another Location

Airport or City:

Trip Planner

Search our weather history database for the weather conditions in past years. The results will help you decide how hot, cold, wet, or windy it might be!

Date:

Astronomy

Aug. 25, 2013 Rise Set
Actual Time 6:02 AM MDT 7:43 PM MDT
Civil Twilight 5:30 AM MDT 8:15 PM MDT
Nautical Twilight 4:50 AM MDT 8:54 PM MDT
Astronomical Twilight 4:08 AM MDT 9:36 PM MDT
Moon 9:51 PM MDT (8/25) 11:29 AM MDT (8/25)
Length of Visible Light 14h 45m
Length of Day
13h 41m
Waning Gibbous, 75% of the Moon is Illuminated
Aug 25
Waning Gibbous
Aug 28
Last Quarter
Sep 5
New
Sep 12
First Quarter
Sep 19
Full

Hourly Weather History & Observations

Time (MDT) Temp. Heat Index Dew Point Humidity Pressure Visibility Wind Dir Wind Speed Gust Speed Precip Events Conditions
12:56 AM 63.0 °F - 55.9 °F 78% 29.85 in 10.0 mi Calm Calm - N/A   Clear
1:56 AM 64.0 °F - 54.0 °F 70% 29.85 in 10.0 mi Calm Calm - N/A   Clear
2:56 AM 62.1 °F - 54.0 °F 75% 29.86 in 10.0 mi WNW 5.8 mph - N/A   Clear
3:56 AM 59.0 °F - 53.1 °F 81% 29.89 in 10.0 mi South 3.5 mph - N/A   Clear
4:56 AM 57.0 °F - 52.0 °F 83% 29.90 in 10.0 mi Calm Calm - N/A   Clear
5:56 AM 60.1 °F - 52.0 °F 75% 29.92 in 10.0 mi Calm Calm - N/A   Clear
6:56 AM 60.1 °F - 54.0 °F 80% 29.93 in 10.0 mi SW 3.5 mph - N/A   Clear
7:56 AM 70.0 °F - 55.9 °F 61% 29.93 in 10.0 mi WNW 3.5 mph - N/A   Clear
8:56 AM 78.1 °F - 57.9 °F 50% 29.92 in 10.0 mi NNE 3.5 mph - N/A   Clear
9:56 AM 82.9 °F 82.4 °F 57.0 °F 41% 29.93 in 10.0 mi East 5.8 mph - N/A   Clear
10:56 AM 87.1 °F 84.9 °F 53.1 °F 31% 29.93 in 10.0 mi ESE 4.6 mph - N/A   Clear
11:56 AM 89.1 °F 87.1 °F 55.0 °F 31% 29.93 in 10.0 mi ESE 8.1 mph - N/A   Clear
12:56 PM 91.0 °F 88.9 °F 55.0 °F 29% 29.91 in 10.0 mi East 8.1 mph - N/A   Clear
1:56 PM 91.0 °F 88.5 °F 53.1 °F 27% 29.91 in 10.0 mi Calm Calm - N/A   Clear
2:56 PM 93.0 °F 90.8 °F 54.0 °F 27% 29.91 in 10.0 mi SE 9.2 mph - N/A   Clear
3:56 PM 88.0 °F 87.1 °F 59.0 °F 37% 29.91 in 10.0 mi SSE 3.5 mph - N/A   Mostly Cloudy
4:56 PM 89.1 °F 88.2 °F 59.0 °F 36% 29.90 in 10.0 mi ESE 4.6 mph - N/A   Partly Cloudy
5:56 PM 86.0 °F 85.4 °F 59.0 °F 40% 29.91 in 10.0 mi South 3.5 mph - N/A   Clear
6:56 PM 80.1 °F 80.6 °F 57.9 °F 47% 29.92 in 10.0 mi NNE 10.4 mph - N/A   Clear
7:56 PM 78.1 °F - 57.9 °F 50% 29.91 in 10.0 mi ENE 6.9 mph - N/A   Clear
8:56 PM 73.9 °F - 60.1 °F 62% 29.93 in 10.0 mi SE 9.2 mph - N/A   Partly Cloudy
9:56 PM 71.1 °F - 60.1 °F 68% 29.92 in 10.0 mi East 6.9 mph - N/A   Clear
10:56 PM 68.0 °F - 60.1 °F 76% 29.91 in 10.0 mi ESE 6.9 mph - N/A   Clear
11:56 PM 69.1 °F - 60.1 °F 73% 29.89 in 10.0 mi ESE 6.9 mph - N/A   Clear